Location: Emory University Observatory
(33.7903°N, 84.3267°W)
Time: 09:52:45
(UTC-05:00)

OTV 5 (USA 277) - Pass Details

Date: 13 October 2017
Orbit: 404 x 417 km, 43.0° (Epoch: 07 September)

Event Time Altitude Azimuth Distance (km) Brightness Sun altitude
Rises 20:22:21 0° 283° (WNW) 2,351 ? -16.7°
Reaches altitude 10° 20:24:53 10° 302° (WNW) 1,489 ? -17.3°
Maximum altitude 20:27:23 19° 350° (N) 1,058 ? -17.8°
Enters shadow 20:28:29 17° 16° (NNE) 1,153 ? -18.0°
